Weather History for Thermal, CA

Change the Weather History Date:

Friday, March 15, 2013

  Actual Average Record
Temperature  
Mean Temperature 74 °F 64 °F  
Max Temperature 95 °F 81 °F 97 °F (1972)
Min Temperature 52 °F 47 °F 32 °F (1962)
Degree Days  
Heating Degree Days 0 3  
Month to date heating degree days 33 58  
Since 1 July heating degree days 1121 1123  
Cooling Degree Days 9 2  
Month to date cooling degree days 39 21  
Year to date cooling degree days 39 33  
Growing Degree Days 23 (Base 50)    
Moisture  
Dew Point 39 °F    
Average Humidity 36    
Maximum Humidity 59    
Minimum Humidity 12    
Precipitation  
Precipitation 0.00 in 0.02 in 0.36 in (1965)
Month to date precipitation 0.07 0.27  
Year to date precipitation 0.44 1.60  
Since 1 July precipitation 2.62 2.98  
Snow  
Snow 0.00 in - - ()
Month to date snowfall 0.0  
Year to date snowfall 0.0  
Since 1 July snowfall 0.0  
Snow Depth 0.00 in    
Sea Level Pressure  
Sea Level Pressure 29.85 in    
Wind  
Wind Speed 6 mph (NE)    
Max Wind Speed 17 mph    
Max Gust Speed 23 mph    
Visibility 10 miles    
Events      
T = Trace of Precipitation, MM = Missing Value Source: NWS Daily Summary

Daily Weather History Graph

Daily Weather History Graph

Search for Another Location

Airport:

Trip Planner

Search our weather history database for the weather conditions in past years. The results will help you decide how hot, cold, wet, or windy it might be!

Date:

Astronomy

Mar. 15, 2013 Rise Set
Actual Time 6:54 AM PDT 6:52 PM PDT
Civil Twilight 6:29 AM PDT 7:17 PM PDT
Nautical Twilight 6:00 AM PDT 7:46 PM PDT
Astronomical Twilight 5:31 AM PDT 8:15 PM PDT
Moon 9:00 AM PDT (3/15) 10:56 PM PDT (3/15)
Length of Visible Light 12h 47m
Length of Day
11h 58m
Waxing Crescent, 16% of the Moon is Illuminated
Mar 15
Waxing Crescent
Mar 19
First Quarter
Mar 27
Full
Apr 2
Last Quarter
Apr 10
New

Hourly Weather History & Observations

Time (PDT) Temp. Dew Point Humidity Pressure Visibility Wind Dir Wind Speed Gust Speed Precip Events Conditions
12:52 AM 57.9 °F 41.0 °F 53% 29.93 in 10.0 mi North 3.5 mph - N/A   Clear
1:52 AM 64.0 °F 39.9 °F 41% 29.92 in 10.0 mi North 3.5 mph - N/A   Clear
2:52 AM 57.9 °F 39.9 °F 51% 29.93 in 10.0 mi North 4.6 mph - N/A   Clear
3:52 AM 55.9 °F 41.0 °F 57% 29.89 in 10.0 mi Calm Calm - N/A   Clear
4:52 AM 53.1 °F 39.0 °F 59% 29.88 in 10.0 mi Calm Calm - N/A   Clear
5:52 AM 55.9 °F 39.0 °F 53% 29.88 in 10.0 mi North 3.5 mph - N/A   Clear
6:52 AM 62.1 °F 37.9 °F 41% 29.88 in 10.0 mi North 5.8 mph - N/A   Clear
7:52 AM 60.1 °F 43.0 °F 53% 29.90 in 10.0 mi Calm Calm - N/A   Clear
8:52 AM 73.0 °F 39.9 °F 30% 29.91 in 10.0 mi Calm Calm - N/A   Clear
9:52 AM 77.0 °F 43.0 °F 30% 29.93 in 10.0 mi South 3.5 mph - N/A   Clear
10:52 AM 82.0 °F 48.9 °F 31% 29.92 in 10.0 mi Variable 5.8 mph - N/A   Clear
11:52 AM 86.0 °F 43.0 °F 22% 29.90 in 10.0 mi SSE 8.1 mph - N/A   Clear
12:52 PM 88.0 °F 37.9 °F 17% 29.88 in 10.0 mi SE 6.9 mph - N/A   Clear
1:52 PM 91.9 °F 39.0 °F 16% 29.87 in 10.0 mi SE 4.6 mph - N/A   Clear
2:52 PM 93.9 °F 34.0 °F 12% 29.81 in 10.0 mi Variable 4.6 mph - N/A   Clear
3:52 PM 93.9 °F 37.0 °F 14% 29.79 in 10.0 mi SE 10.4 mph - N/A   Clear
4:52 PM 91.9 °F 37.0 °F 15% 29.78 in 10.0 mi SSE 9.2 mph - N/A   Clear
5:52 PM 90.0 °F 35.1 °F 14% 29.77 in 10.0 mi SE 5.8 mph - N/A   Clear
6:52 PM 82.9 °F 37.9 °F 20% 29.77 in 10.0 mi South 3.5 mph - N/A   Clear
7:52 PM 73.0 °F 37.9 °F 28% 29.77 in 10.0 mi Calm Calm - N/A   Clear
8:52 PM 79.0 °F 39.9 °F 25% 29.78 in 10.0 mi NNW 11.5 mph - N/A   Clear
9:52 PM 81.0 °F 37.0 °F 21% 29.80 in 10.0 mi NNW 13.8 mph - N/A   Clear
10:52 PM 80.1 °F 32.0 °F 17% 29.79 in 10.0 mi NNW 15.0 mph - N/A   Clear
11:52 PM 79.0 °F 30.9 °F 17% 29.79 in 10.0 mi NNW 16.1 mph - N/A   Clear